Year,Month,Day,Hour,Minute,Value (Times are PST for temperature in C)
2017,05,05,00,00,11.40
2017,05,05,00,01,11.40
2017,05,05,00,02,11.40
2017,05,05,00,03,11.40
2017,05,05,00,04,11.40
2017,05,05,00,05,11.30
2017,05,05,00,06,11.30
2017,05,05,00,07,11.30
2017,05,05,00,08,11.30
2017,05,05,00,09,11.20
2017,05,05,00,10,11.20
2017,05,05,00,11,11.10
2017,05,05,00,12,11.10
2017,05,05,00,13,11.10
2017,05,05,00,14,11.10
2017,05,05,00,15,11.10
2017,05,05,00,16,11.00
2017,05,05,00,17,10.90
2017,05,05,00,18,10.90
2017,05,05,00,19,10.90
2017,05,05,00,20,10.90
2017,05,05,00,21,10.90
2017,05,05,00,22,10.90
2017,05,05,00,23,10.90
2017,05,05,00,24,10.90
2017,05,05,00,25,10.90
2017,05,05,00,26,10.90
2017,05,05,00,27,10.80
2017,05,05,00,28,10.80
2017,05,05,00,29,10.80
2017,05,05,00,30,10.80
2017,05,05,00,31,10.80
2017,05,05,00,32,10.80
2017,05,05,00,33,10.80
2017,05,05,00,34,10.80
2017,05,05,00,35,10.80
2017,05,05,00,36,10.80
2017,05,05,00,37,10.80
2017,05,05,00,38,10.80
2017,05,05,00,39,10.80
2017,05,05,00,40,10.80
2017,05,05,00,41,10.80
2017,05,05,00,42,10.80
2017,05,05,00,43,10.80
2017,05,05,00,44,10.90
2017,05,05,00,45,10.90
2017,05,05,00,46,10.90
2017,05,05,00,47,10.90
2017,05,05,00,48,10.90
2017,05,05,00,49,10.90
2017,05,05,00,50,10.90
2017,05,05,00,51,10.90
2017,05,05,00,52,10.90
2017,05,05,00,53,10.90
2017,05,05,00,54,10.90
2017,05,05,00,55,10.90
2017,05,05,00,56,10.90
2017,05,05,00,57,10.90
2017,05,05,00,58,10.90
2017,05,05,00,59,10.90
2017,05,05,01,00,10.90
2017,05,05,01,01,10.90
2017,05,05,01,02,10.90
2017,05,05,01,03,10.90
2017,05,05,01,04,10.90
2017,05,05,01,05,10.90
2017,05,05,01,06,10.90
2017,05,05,01,07,10.90
2017,05,05,01,08,10.90
2017,05,05,01,09,10.90
2017,05,05,01,10,10.90
2017,05,05,01,11,10.90
2017,05,05,01,12,10.90
2017,05,05,01,13,10.90
2017,05,05,01,14,10.90
2017,05,05,01,15,10.90
2017,05,05,01,16,10.90
2017,05,05,01,17,10.80
2017,05,05,01,18,10.80
2017,05,05,01,19,10.80
2017,05,05,01,20,10.80
2017,05,05,01,21,10.80
2017,05,05,01,22,10.90
2017,05,05,01,23,10.90
2017,05,05,01,24,10.90
2017,05,05,01,25,10.90
2017,05,05,01,26,10.90
2017,05,05,01,27,10.90
2017,05,05,01,28,10.90
2017,05,05,01,29,10.90
2017,05,05,01,30,10.90
2017,05,05,01,31,10.90
2017,05,05,01,32,10.90
2017,05,05,01,33,11.00
2017,05,05,01,34,11.10
2017,05,05,01,35,11.10
2017,05,05,01,36,11.10
2017,05,05,01,37,11.10
2017,05,05,01,38,11.10
2017,05,05,01,39,11.10
2017,05,05,01,40,11.20
2017,05,05,01,41,11.20
2017,05,05,01,42,11.20
2017,05,05,01,43,11.20
2017,05,05,01,44,11.20
2017,05,05,01,45,11.30
2017,05,05,01,46,11.30
2017,05,05,01,47,11.30
2017,05,05,01,48,11.30
2017,05,05,01,49,11.30
2017,05,05,01,50,11.30
2017,05,05,01,51,11.40
2017,05,05,01,52,11.40
2017,05,05,01,53,11.40
2017,05,05,01,54,11.40
2017,05,05,01,55,11.40
2017,05,05,01,56,11.40
2017,05,05,01,57,11.40
2017,05,05,01,58,11.40
2017,05,05,01,59,11.40
2017,05,05,02,00,11.50
2017,05,05,02,01,11.60
2017,05,05,02,02,11.60
2017,05,05,02,03,11.60
2017,05,05,02,04,11.60
2017,05,05,02,05,11.60
2017,05,05,02,06,11.60
2017,05,05,02,07,11.60
2017,05,05,02,08,11.60
2017,05,05,02,09,11.60
2017,05,05,02,10,11.60
2017,05,05,02,11,11.60
2017,05,05,02,12,11.60
2017,05,05,02,13,11.60
2017,05,05,02,14,11.60
2017,05,05,02,15,11.60
2017,05,05,02,16,11.60
2017,05,05,02,17,11.60
2017,05,05,02,18,11.60
2017,05,05,02,19,11.70
2017,05,05,02,20,11.70
2017,05,05,02,21,11.70
2017,05,05,02,22,11.70
2017,05,05,02,23,11.70
2017,05,05,02,24,11.80
2017,05,05,02,25,11.80
2017,05,05,02,26,11.80
2017,05,05,02,27,11.80
2017,05,05,02,28,11.80
2017,05,05,02,29,11.80
2017,05,05,02,30,11.80
2017,05,05,02,31,11.80
2017,05,05,02,32,11.80
2017,05,05,02,33,11.80
2017,05,05,02,34,11.90
2017,05,05,02,35,11.90
2017,05,05,02,36,11.90
2017,05,05,02,37,11.90
2017,05,05,02,38,11.80
2017,05,05,02,39,11.80
2017,05,05,02,40,11.70
2017,05,05,02,41,11.70
2017,05,05,02,42,11.70
2017,05,05,02,43,11.60
2017,05,05,02,44,11.60
2017,05,05,02,45,11.60
2017,05,05,02,46,11.60
2017,05,05,02,47,11.60
2017,05,05,02,48,11.60
2017,05,05,02,49,11.60
2017,05,05,02,50,11.60
2017,05,05,02,51,11.60
2017,05,05,02,52,11.60
2017,05,05,02,53,11.60
2017,05,05,02,54,11.50
2017,05,05,02,55,11.40
2017,05,05,02,56,11.40
2017,05,05,02,57,11.40
2017,05,05,02,58,11.40
2017,05,05,02,59,11.40
2017,05,05,03,00,11.40
2017,05,05,03,01,11.40
2017,05,05,03,02,11.40
2017,05,05,03,03,11.40
2017,05,05,03,04,11.40
2017,05,05,03,05,11.40
2017,05,05,03,06,11.40
2017,05,05,03,07,11.40
2017,05,05,03,08,11.40
2017,05,05,03,09,11.40
2017,05,05,03,10,11.40
2017,05,05,03,11,11.40
2017,05,05,03,12,11.40
2017,05,05,03,13,11.40
2017,05,05,03,14,11.40
2017,05,05,03,15,11.40
2017,05,05,03,16,11.40
2017,05,05,03,17,11.40
2017,05,05,03,18,11.40
2017,05,05,03,19,11.40
2017,05,05,03,20,11.40
2017,05,05,03,21,11.40
2017,05,05,03,22,11.40
2017,05,05,03,23,11.40
2017,05,05,03,24,11.40
2017,05,05,03,25,11.40
2017,05,05,03,26,11.40
2017,05,05,03,27,11.40
2017,05,05,03,28,11.40
2017,05,05,03,29,11.40
2017,05,05,03,30,11.40
2017,05,05,03,31,11.40
2017,05,05,03,32,11.40
2017,05,05,03,33,11.40
2017,05,05,03,34,11.50
2017,05,05,03,35,11.60
2017,05,05,03,36,11.60
2017,05,05,03,37,11.60
2017,05,05,03,38,11.60
2017,05,05,03,39,11.60
2017,05,05,03,40,11.60
2017,05,05,03,41,11.60
2017,05,05,03,42,11.70
2017,05,05,03,43,11.70
2017,05,05,03,44,11.70
2017,05,05,03,45,11.70
2017,05,05,03,46,11.70
2017,05,05,03,47,11.70
2017,05,05,03,48,11.70
2017,05,05,03,49,11.70
2017,05,05,03,50,11.70
2017,05,05,03,51,11.70
2017,05,05,03,52,11.70
2017,05,05,03,53,11.70
2017,05,05,03,54,11.70
2017,05,05,03,55,11.70
2017,05,05,03,56,11.70
2017,05,05,03,57,11.70
2017,05,05,03,58,11.70
2017,05,05,03,59,11.70
2017,05,05,04,00,11.70
2017,05,05,04,01,11.70
2017,05,05,04,02,11.70
2017,05,05,04,03,11.70
2017,05,05,04,04,11.70
2017,05,05,04,05,11.80
2017,05,05,04,06,11.80
2017,05,05,04,07,11.80
2017,05,05,04,08,11.80
2017,05,05,04,09,11.80
2017,05,05,04,10,11.80
2017,05,05,04,11,11.80
2017,05,05,04,12,11.80
2017,05,05,04,13,11.80
2017,05,05,04,14,11.80
2017,05,05,04,15,11.80
2017,05,05,04,16,11.80
2017,05,05,04,17,11.80
2017,05,05,04,18,11.80
2017,05,05,04,19,11.80
2017,05,05,04,20,11.70
2017,05,05,04,21,11.70
2017,05,05,04,22,11.70
2017,05,05,04,23,11.70
2017,05,05,04,24,11.70
2017,05,05,04,25,11.70
2017,05,05,04,26,11.60
2017,05,05,04,27,11.60
2017,05,05,04,28,11.60
2017,05,05,04,29,11.60
2017,05,05,04,30,11.60
2017,05,05,04,31,11.60
2017,05,05,04,32,11.60
2017,05,05,04,33,11.60
2017,05,05,04,34,11.60
2017,05,05,04,35,11.60
2017,05,05,04,36,11.60
2017,05,05,04,37,11.60
2017,05,05,04,38,11.60
2017,05,05,04,39,11.60
2017,05,05,04,40,11.60
2017,05,05,04,41,11.60
2017,05,05,04,42,11.60
2017,05,05,04,43,11.60
2017,05,05,04,44,11.60
2017,05,05,04,45,11.60
2017,05,05,04,46,11.60
2017,05,05,04,47,11.60
2017,05,05,04,48,11.60
2017,05,05,04,49,11.60
2017,05,05,04,50,11.60
2017,05,05,04,51,11.50
2017,05,05,04,52,11.40
2017,05,05,04,53,11.50
2017,05,05,04,54,11.60
2017,05,05,04,55,11.60
2017,05,05,04,56,11.60
2017,05,05,04,57,11.60
2017,05,05,04,58,11.60
2017,05,05,04,59,11.60
2017,05,05,05,00,11.60
2017,05,05,05,01,11.60
2017,05,05,05,02,11.60
2017,05,05,05,03,11.60
2017,05,05,05,04,11.60
2017,05,05,05,05,11.60
2017,05,05,05,06,11.60
2017,05,05,05,07,11.70
2017,05,05,05,08,11.70
2017,05,05,05,09,11.70
2017,05,05,05,10,11.70
2017,05,05,05,11,11.70
2017,05,05,05,12,11.80
2017,05,05,05,13,11.80
2017,05,05,05,14,11.80
2017,05,05,05,15,11.80
2017,05,05,05,16,11.80
2017,05,05,05,17,11.80
2017,05,05,05,18,11.80
2017,05,05,05,19,11.80
2017,05,05,05,20,11.80
2017,05,05,05,21,11.80
2017,05,05,05,22,11.90
2017,05,05,05,23,11.90
2017,05,05,05,24,11.90
2017,05,05,05,25,12.00
2017,05,05,05,26,12.00
2017,05,05,05,27,12.10
2017,05,05,05,28,12.20
2017,05,05,05,29,12.30
2017,05,05,05,30,12.30
2017,05,05,05,31,12.40
2017,05,05,05,32,12.50
2017,05,05,05,33,12.50
2017,05,05,05,34,12.60
2017,05,05,05,35,12.60
2017,05,05,05,36,12.70
2017,05,05,05,37,12.70
2017,05,05,05,38,12.80
2017,05,05,05,39,12.80
2017,05,05,05,40,12.80
2017,05,05,05,41,12.90
2017,05,05,05,42,12.90
2017,05,05,05,43,13.00
2017,05,05,05,44,13.00
2017,05,05,05,45,13.10
2017,05,05,05,46,13.10
2017,05,05,05,47,13.20
2017,05,05,05,48,13.20
2017,05,05,05,49,13.20
2017,05,05,05,50,13.30
2017,05,05,05,51,13.30
2017,05,05,05,52,13.30
2017,05,05,05,53,13.30
2017,05,05,05,54,13.30
2017,05,05,05,55,13.30
2017,05,05,05,56,13.40
2017,05,05,05,57,13.40
2017,05,05,05,58,13.40
2017,05,05,05,59,13.50
2017,05,05,06,00,13.50
2017,05,05,06,01,13.50
2017,05,05,06,02,13.50
2017,05,05,06,03,13.60
2017,05,05,06,04,13.60
2017,05,05,06,05,13.60
2017,05,05,06,06,13.60
2017,05,05,06,07,13.70
2017,05,05,06,08,13.70
2017,05,05,06,09,13.70
2017,05,05,06,10,13.70
2017,05,05,06,11,13.70
2017,05,05,06,12,13.70
2017,05,05,06,13,13.70
2017,05,05,06,14,13.70
2017,05,05,06,15,13.70
2017,05,05,06,16,13.70
2017,05,05,06,17,13.70
2017,05,05,06,18,13.80
2017,05,05,06,19,13.80
2017,05,05,06,20,13.80
2017,05,05,06,21,13.80
2017,05,05,06,22,13.90
2017,05,05,06,23,13.90
2017,05,05,06,24,13.90
2017,05,05,06,25,13.90
2017,05,05,06,26,13.90
2017,05,05,06,27,13.90
2017,05,05,06,28,13.90
2017,05,05,06,29,13.90
2017,05,05,06,30,13.90
2017,05,05,06,31,13.90
2017,05,05,06,32,13.90
2017,05,05,06,33,14.00
2017,05,05,06,34,14.00
2017,05,05,06,35,14.00
2017,05,05,06,36,14.10
2017,05,05,06,37,14.10
2017,05,05,06,38,14.00
2017,05,05,06,39,14.00
2017,05,05,06,40,14.00
2017,05,05,06,41,14.00
2017,05,05,06,42,14.00
2017,05,05,06,43,14.00
2017,05,05,06,44,14.00
2017,05,05,06,45,14.00
2017,05,05,06,46,14.00
2017,05,05,06,47,14.00
2017,05,05,06,48,14.00
2017,05,05,06,49,13.90
2017,05,05,06,50,14.00
2017,05,05,06,51,14.00
2017,05,05,06,52,14.00
2017,05,05,06,53,14.00
2017,05,05,06,54,13.90
2017,05,05,06,55,13.90
2017,05,05,06,56,13.90
2017,05,05,06,57,13.90
2017,05,05,06,58,13.90
2017,05,05,06,59,13.90
2017,05,05,07,00,13.90
2017,05,05,07,01,13.90
2017,05,05,07,02,13.90
2017,05,05,07,03,13.90
2017,05,05,07,04,13.90
2017,05,05,07,05,13.90
2017,05,05,07,06,14.00
2017,05,05,07,07,14.00
2017,05,05,07,08,14.00
2017,05,05,07,09,14.00
2017,05,05,07,10,14.00
2017,05,05,07,11,14.00
2017,05,05,07,12,14.00
2017,05,05,07,13,14.00
2017,05,05,07,14,14.00
2017,05,05,07,15,13.90
2017,05,05,07,16,13.90
2017,05,05,07,17,13.90
2017,05,05,07,18,13.90
2017,05,05,07,19,13.90
2017,05,05,07,20,13.90
2017,05,05,07,21,13.90
2017,05,05,07,22,13.90
2017,05,05,07,23,13.90
2017,05,05,07,24,13.90
2017,05,05,07,25,13.90
2017,05,05,07,26,13.90
2017,05,05,07,27,13.90
2017,05,05,07,28,13.90
2017,05,05,07,29,13.90
2017,05,05,07,30,13.90
2017,05,05,07,31,14.00
2017,05,05,07,32,14.00
2017,05,05,07,33,14.00
2017,05,05,07,34,14.00
2017,05,05,07,35,14.10
2017,05,05,07,36,14.10
2017,05,05,07,37,14.10
2017,05,05,07,38,14.20
2017,05,05,07,39,14.20
2017,05,05,07,40,14.20
2017,05,05,07,41,14.20
2017,05,05,07,42,14.20
2017,05,05,07,43,14.20
2017,05,05,07,44,14.20
2017,05,05,07,45,14.20
2017,05,05,07,46,14.30
2017,05,05,07,47,14.40
2017,05,05,07,48,14.50
2017,05,05,07,49,14.60
2017,05,05,07,50,14.60
2017,05,05,07,51,14.70
2017,05,05,07,52,14.70
2017,05,05,07,53,14.80
2017,05,05,07,54,14.90
2017,05,05,07,55,14.90
2017,05,05,07,56,15.00
2017,05,05,07,57,15.10
2017,05,05,07,58,15.10
2017,05,05,07,59,15.10
2017,05,05,08,00,15.10
2017,05,05,08,01,15.20
2017,05,05,08,02,15.20
2017,05,05,08,03,15.20
2017,05,05,08,04,15.20
2017,05,05,08,05,15.20
2017,05,05,08,06,15.30
2017,05,05,08,07,15.30
2017,05,05,08,08,15.30
2017,05,05,08,09,15.30
2017,05,05,08,10,15.30
2017,05,05,08,11,15.20
2017,05,05,08,12,15.20
2017,05,05,08,13,15.20
2017,05,05,08,14,15.20
2017,05,05,08,15,15.20
2017,05,05,08,16,15.20
2017,05,05,08,17,15.20
2017,05,05,08,18,15.20
2017,05,05,08,19,15.20
2017,05,05,08,20,15.20
2017,05,05,08,21,15.20
2017,05,05,08,22,15.20
2017,05,05,08,23,15.20
2017,05,05,08,24,15.20
2017,05,05,08,25,15.10
2017,05,05,08,26,15.00
2017,05,05,08,27,15.00
2017,05,05,08,28,14.90
2017,05,05,08,29,14.80
2017,05,05,08,30,14.80
2017,05,05,08,31,14.70
2017,05,05,08,32,14.60
2017,05,05,08,33,14.60
2017,05,05,08,34,14.60
2017,05,05,08,35,14.50
2017,05,05,08,36,14.50
2017,05,05,08,37,14.40
2017,05,05,08,38,14.40
2017,05,05,08,39,14.30
2017,05,05,08,40,14.30
2017,05,05,08,41,14.40
2017,05,05,08,42,14.40
2017,05,05,08,43,14.50
2017,05,05,08,44,14.50
2017,05,05,08,45,14.50
2017,05,05,08,46,14.60
2017,05,05,08,47,14.60
2017,05,05,08,48,14.60
2017,05,05,08,49,14.70
2017,05,05,08,50,14.70
2017,05,05,08,51,14.80
2017,05,05,08,52,14.80
2017,05,05,08,53,14.80
2017,05,05,08,54,14.90
2017,05,05,08,55,14.90
2017,05,05,08,56,15.00
2017,05,05,08,57,15.10
2017,05,05,08,58,15.10
2017,05,05,08,59,15.10
2017,05,05,09,00,15.10
2017,05,05,09,01,15.10
2017,05,05,09,02,15.10
2017,05,05,09,03,15.10
2017,05,05,09,04,15.20
2017,05,05,09,05,15.20
2017,05,05,09,06,15.10
2017,05,05,09,07,15.10
2017,05,05,09,08,15.10
2017,05,05,09,09,15.10
2017,05,05,09,10,15.10
2017,05,05,09,11,15.20
2017,05,05,09,12,15.10
2017,05,05,09,13,15.00
2017,05,05,09,14,15.00
2017,05,05,09,15,15.00
2017,05,05,09,16,14.90
2017,05,05,09,17,14.90
2017,05,05,09,18,14.80
2017,05,05,09,19,14.80
2017,05,05,09,20,14.80
2017,05,05,09,21,14.80
2017,05,05,09,22,14.80
2017,05,05,09,23,14.80
2017,05,05,09,24,14.70
2017,05,05,09,25,14.70
2017,05,05,09,26,14.70
2017,05,05,09,27,14.70
2017,05,05,09,28,14.80
2017,05,05,09,29,14.80
2017,05,05,09,30,14.80
2017,05,05,09,31,14.80
2017,05,05,09,32,14.80
2017,05,05,09,33,14.80
2017,05,05,09,34,14.80
2017,05,05,09,35,14.80
2017,05,05,09,36,14.80
2017,05,05,09,37,14.80
2017,05,05,09,38,14.90
2017,05,05,09,39,14.90
2017,05,05,09,40,14.90
2017,05,05,09,41,14.90
2017,05,05,09,42,14.90
2017,05,05,09,43,14.90
2017,05,05,09,44,14.90
2017,05,05,09,45,15.00
2017,05,05,09,46,15.00
2017,05,05,09,47,15.00
2017,05,05,09,48,15.10
2017,05,05,09,49,15.20
2017,05,05,09,50,15.30
2017,05,05,09,51,15.30
2017,05,05,09,52,15.30
2017,05,05,09,53,15.40
2017,05,05,09,54,15.40
2017,05,05,09,55,15.40
2017,05,05,09,56,15.40
2017,05,05,09,57,15.50
2017,05,05,09,58,15.50
2017,05,05,09,59,15.50
2017,05,05,10,00,15.60
2017,05,05,10,01,15.50
2017,05,05,10,02,15.50
2017,05,05,10,03,15.50
2017,05,05,10,04,15.50
2017,05,05,10,05,15.50
2017,05,05,10,06,15.50
2017,05,05,10,07,15.50
2017,05,05,10,08,15.50
2017,05,05,10,09,15.50
2017,05,05,10,10,15.50
2017,05,05,10,11,15.60
2017,05,05,10,12,15.60
2017,05,05,10,13,15.60
2017,05,05,10,14,15.60
2017,05,05,10,15,15.70
2017,05,05,10,16,15.70
2017,05,05,10,17,15.70
2017,05,05,10,18,15.70
2017,05,05,10,19,15.70
2017,05,05,10,20,15.70
2017,05,05,10,21,15.60
2017,05,05,10,22,15.60
2017,05,05,10,23,15.50
2017,05,05,10,24,15.50
2017,05,05,10,25,15.40
2017,05,05,10,26,15.50
2017,05,05,10,27,15.50
2017,05,05,10,28,15.50
2017,05,05,10,29,15.50
2017,05,05,10,30,15.60
2017,05,05,10,31,15.70
2017,05,05,10,32,15.80
2017,05,05,10,33,15.80
2017,05,05,10,34,15.80
2017,05,05,10,35,15.80
2017,05,05,10,36,15.70
2017,05,05,10,37,15.70
2017,05,05,10,38,15.70
2017,05,05,10,39,15.70
2017,05,05,10,40,15.70
2017,05,05,10,41,15.70
2017,05,05,10,42,15.70
2017,05,05,10,43,15.70
2017,05,05,10,44,15.80
2017,05,05,10,45,15.80
2017,05,05,10,46,15.80
2017,05,05,10,47,15.80
2017,05,05,10,48,15.80
2017,05,05,10,49,15.70
2017,05,05,10,50,15.70
2017,05,05,10,51,15.70
2017,05,05,10,52,15.70
2017,05,05,10,53,15.70
2017,05,05,10,54,15.80
2017,05,05,10,55,15.80
2017,05,05,10,56,15.70
2017,05,05,10,57,15.70
2017,05,05,10,58,15.70
2017,05,05,10,59,15.70
2017,05,05,11,00,15.60
2017,05,05,11,01,15.60
2017,05,05,11,02,15.60
2017,05,05,11,03,15.70
2017,05,05,11,04,15.60
2017,05,05,11,05,15.60
2017,05,05,11,06,15.50
2017,05,05,11,07,15.40
2017,05,05,11,08,15.40
2017,05,05,11,09,15.30
2017,05,05,11,10,15.20
2017,05,05,11,11,15.20
2017,05,05,11,12,15.10
2017,05,05,11,13,15.10
2017,05,05,11,14,15.00
2017,05,05,11,15,14.90
2017,05,05,11,16,14.90
2017,05,05,11,17,14.80
2017,05,05,11,18,14.80
2017,05,05,11,19,14.80
2017,05,05,11,20,14.80
2017,05,05,11,21,14.80
2017,05,05,11,22,14.80
2017,05,05,11,23,14.70
2017,05,05,11,24,14.70
2017,05,05,11,25,14.60
2017,05,05,11,26,14.60
2017,05,05,11,27,14.60
2017,05,05,11,28,14.50
2017,05,05,11,29,14.40
2017,05,05,11,30,14.40
2017,05,05,11,31,14.30
2017,05,05,11,32,14.30
2017,05,05,11,33,14.30
2017,05,05,11,34,14.20
2017,05,05,11,35,14.10
2017,05,05,11,36,14.10
2017,05,05,11,37,14.00
2017,05,05,11,38,13.90
2017,05,05,11,39,13.90
2017,05,05,11,40,13.80
2017,05,05,11,41,13.80
2017,05,05,11,42,13.70
2017,05,05,11,43,13.70
2017,05,05,11,44,13.60
2017,05,05,11,45,13.60
2017,05,05,11,46,13.50
2017,05,05,11,47,13.50
2017,05,05,11,48,13.50
2017,05,05,11,49,13.50
2017,05,05,11,50,13.40
2017,05,05,11,51,13.30
2017,05,05,11,52,13.30
2017,05,05,11,53,13.20
2017,05,05,11,54,13.20
2017,05,05,11,55,13.10
2017,05,05,11,56,13.10
2017,05,05,11,57,13.10
2017,05,05,11,58,13.10
2017,05,05,11,59,13.10
2017,05,05,12,00,13.10
2017,05,05,12,01,13.10
2017,05,05,12,02,13.10
2017,05,05,12,03,13.10
2017,05,05,12,04,13.10
2017,05,05,12,05,13.10
2017,05,05,12,06,13.10
2017,05,05,12,07,13.10
2017,05,05,12,08,13.10
2017,05,05,12,09,13.10
2017,05,05,12,10,13.10
2017,05,05,12,11,13.20
2017,05,05,12,12,13.20
2017,05,05,12,13,13.20
2017,05,05,12,14,13.30
2017,05,05,12,15,13.30
2017,05,05,12,16,13.30
2017,05,05,12,17,13.40
2017,05,05,12,18,13.50
2017,05,05,12,19,13.60
2017,05,05,12,20,13.60
2017,05,05,12,21,13.60
2017,05,05,12,22,13.70
2017,05,05,12,23,13.70
2017,05,05,12,24,13.70
2017,05,05,12,25,13.70
2017,05,05,12,26,13.80
2017,05,05,12,27,13.80
2017,05,05,12,28,13.90
2017,05,05,12,29,13.90
2017,05,05,12,30,14.00
2017,05,05,12,31,14.00
2017,05,05,12,32,14.10
2017,05,05,12,33,14.20
2017,05,05,12,34,14.20
2017,05,05,12,35,14.20
2017,05,05,12,36,14.20
2017,05,05,12,37,14.20
2017,05,05,12,38,14.30
2017,05,05,12,39,14.40
2017,05,05,12,40,14.40
2017,05,05,12,41,14.40
2017,05,05,12,42,14.40
2017,05,05,12,43,14.40
2017,05,05,12,44,14.50
2017,05,05,12,45,14.50
2017,05,05,12,46,14.60
2017,05,05,12,47,14.60
2017,05,05,12,48,14.70
2017,05,05,12,49,14.70
2017,05,05,12,50,14.70
2017,05,05,12,51,14.70
2017,05,05,12,52,14.70
2017,05,05,12,53,14.80
2017,05,05,12,54,14.70
2017,05,05,12,55,14.70
2017,05,05,12,56,14.70
2017,05,05,12,57,14.70
2017,05,05,12,58,14.80
2017,05,05,12,59,14.80
2017,05,05,13,00,14.90
2017,05,05,13,01,15.00
2017,05,05,13,02,15.00
2017,05,05,13,03,15.10
2017,05,05,13,04,15.10
2017,05,05,13,05,15.10
2017,05,05,13,06,15.20
2017,05,05,13,07,15.20
2017,05,05,13,08,15.20
2017,05,05,13,09,15.20
2017,05,05,13,10,15.30
2017,05,05,13,11,15.30
2017,05,05,13,12,15.30
2017,05,05,13,13,15.30
2017,05,05,13,14,15.30
2017,05,05,13,15,15.30
2017,05,05,13,16,15.30
2017,05,05,13,17,15.30
2017,05,05,13,18,15.30
2017,05,05,13,19,15.30
2017,05,05,13,20,15.40
2017,05,05,13,21,15.40
2017,05,05,13,22,15.40
2017,05,05,13,23,15.50
2017,05,05,13,24,15.50
2017,05,05,13,25,15.60
2017,05,05,13,26,15.60
2017,05,05,13,27,15.60
2017,05,05,13,28,15.70
2017,05,05,13,29,15.70
2017,05,05,13,30,15.70
2017,05,05,13,31,15.60
2017,05,05,13,32,15.60
2017,05,05,13,33,15.60
2017,05,05,13,34,15.60
2017,05,05,13,35,15.60
2017,05,05,13,36,15.60
2017,05,05,13,37,15.60
2017,05,05,13,38,15.60
2017,05,05,13,39,15.60
2017,05,05,13,40,15.50
2017,05,05,13,41,15.50
2017,05,05,13,42,15.40
2017,05,05,13,43,15.40
2017,05,05,13,44,15.30
2017,05,05,13,45,15.30
2017,05,05,13,46,15.10
2017,05,05,13,47,15.00
2017,05,05,13,48,14.90
2017,05,05,13,49,14.80
2017,05,05,13,50,14.80
2017,05,05,13,51,14.70
2017,05,05,13,52,14.70
2017,05,05,13,53,14.70
2017,05,05,13,54,14.70
2017,05,05,13,55,14.80
2017,05,05,13,56,14.80
2017,05,05,13,57,14.80
2017,05,05,13,58,14.90
2017,05,05,13,59,15.00
2017,05,05,14,00,15.00
2017,05,05,14,01,15.00
2017,05,05,14,02,15.00
2017,05,05,14,03,15.00
2017,05,05,14,04,15.00
2017,05,05,14,05,14.90
2017,05,05,14,06,14.90
2017,05,05,14,07,14.80
2017,05,05,14,08,14.80
2017,05,05,14,09,14.80
2017,05,05,14,10,14.80
2017,05,05,14,11,14.80
2017,05,05,14,12,14.80
2017,05,05,14,13,14.80
2017,05,05,14,14,14.80
2017,05,05,14,15,14.90
2017,05,05,14,16,14.90
2017,05,05,14,17,14.90
2017,05,05,14,18,14.90
2017,05,05,14,19,14.90
2017,05,05,14,20,14.90
2017,05,05,14,21,14.90
2017,05,05,14,22,14.90
2017,05,05,14,23,14.80
2017,05,05,14,24,14.80
2017,05,05,14,25,14.80
2017,05,05,14,26,14.90
2017,05,05,14,27,15.00
2017,05,05,14,28,15.10
2017,05,05,14,29,15.10
2017,05,05,14,30,15.20
2017,05,05,14,31,15.20
2017,05,05,14,32,15.20
2017,05,05,14,33,15.20
2017,05,05,14,34,15.30
2017,05,05,14,35,15.30
2017,05,05,14,36,15.30
2017,05,05,14,37,15.40
2017,05,05,14,38,15.40
2017,05,05,14,39,15.40
2017,05,05,14,40,15.40
2017,05,05,14,41,15.30
2017,05,05,14,42,15.30
2017,05,05,14,43,15.30
2017,05,05,14,44,15.30
2017,05,05,14,45,15.30
2017,05,05,14,46,15.30
2017,05,05,14,47,15.40
2017,05,05,14,48,15.30
2017,05,05,14,49,15.10
2017,05,05,14,50,15.00
2017,05,05,14,51,14.90
2017,05,05,14,52,14.80
2017,05,05,14,53,14.70
2017,05,05,14,54,14.60
2017,05,05,14,55,14.50
2017,05,05,14,56,14.40
2017,05,05,14,57,14.30
2017,05,05,14,58,14.10
2017,05,05,14,59,14.00
2017,05,05,15,00,13.90
2017,05,05,15,01,13.90
2017,05,05,15,02,13.90
2017,05,05,15,03,13.90
2017,05,05,15,04,13.80
2017,05,05,15,05,13.80
2017,05,05,15,06,13.70
2017,05,05,15,07,13.70
2017,05,05,15,08,13.70
2017,05,05,15,09,13.70
2017,05,05,15,10,13.70
2017,05,05,15,11,13.70
2017,05,05,15,12,13.70
2017,05,05,15,13,13.70
2017,05,05,15,14,13.70
2017,05,05,15,15,13.80
2017,05,05,15,16,13.90
2017,05,05,15,17,14.00
2017,05,05,15,18,14.20
2017,05,05,15,19,14.30
2017,05,05,15,20,14.40
2017,05,05,15,21,14.50
2017,05,05,15,22,14.50
2017,05,05,15,23,14.60
2017,05,05,15,24,14.60
2017,05,05,15,25,14.50
2017,05,05,15,26,14.40
2017,05,05,15,27,14.40
2017,05,05,15,28,14.50
2017,05,05,15,29,14.50
2017,05,05,15,30,14.40
2017,05,05,15,31,14.40
2017,05,05,15,32,14.40
2017,05,05,15,33,14.40
2017,05,05,15,34,14.40
2017,05,05,15,35,14.40
2017,05,05,15,36,14.40
2017,05,05,15,37,14.50
2017,05,05,15,38,14.50
2017,05,05,15,39,14.60
2017,05,05,15,40,14.70
2017,05,05,15,41,14.80
2017,05,05,15,42,14.80
2017,05,05,15,43,14.80
2017,05,05,15,44,14.80
2017,05,05,15,45,14.80
2017,05,05,15,46,14.90
2017,05,05,15,47,14.90
2017,05,05,15,48,14.90
2017,05,05,15,49,14.90
2017,05,05,15,50,14.90
2017,05,05,15,51,14.80
2017,05,05,15,52,14.80
2017,05,05,15,53,14.80
2017,05,05,15,54,14.80
2017,05,05,15,55,14.90
2017,05,05,15,56,15.00
2017,05,05,15,57,15.10
2017,05,05,15,58,15.10
2017,05,05,15,59,15.20
2017,05,05,16,00,15.10
2017,05,05,16,01,15.10
2017,05,05,16,02,15.00
2017,05,05,16,03,14.90
2017,05,05,16,04,14.80
2017,05,05,16,05,14.80
2017,05,05,16,06,14.70
2017,05,05,16,07,14.70
2017,05,05,16,08,14.70
2017,05,05,16,09,14.70
2017,05,05,16,10,14.60
2017,05,05,16,11,14.60
2017,05,05,16,12,14.60
2017,05,05,16,13,14.60
2017,05,05,16,14,14.50
2017,05,05,16,15,14.50
2017,05,05,16,16,14.50
2017,05,05,16,17,14.50
2017,05,05,16,18,14.50
2017,05,05,16,19,14.60
2017,05,05,16,20,14.60
2017,05,05,16,21,14.60
2017,05,05,16,22,14.70
2017,05,05,16,23,14.70
2017,05,05,16,24,14.70
2017,05,05,16,25,14.70
2017,05,05,16,26,14.70
2017,05,05,16,27,14.70
2017,05,05,16,28,14.70
2017,05,05,16,29,14.60
2017,05,05,16,30,14.60
2017,05,05,16,31,14.60
2017,05,05,16,32,14.50
2017,05,05,16,33,14.50
2017,05,05,16,34,14.50
2017,05,05,16,35,14.50
2017,05,05,16,36,14.50
2017,05,05,16,37,14.50
2017,05,05,16,38,14.50
2017,05,05,16,39,14.50
2017,05,05,16,40,14.50
2017,05,05,16,41,14.50
2017,05,05,16,42,14.60
2017,05,05,16,43,14.60
2017,05,05,16,44,14.60
2017,05,05,16,45,14.50
2017,05,05,16,46,14.40
2017,05,05,16,47,14.40
2017,05,05,16,48,14.40
2017,05,05,16,49,14.40
2017,05,05,16,50,14.40
2017,05,05,16,51,14.30
2017,05,05,16,52,14.30
2017,05,05,16,53,14.20
2017,05,05,16,54,14.30
2017,05,05,16,55,14.30
2017,05,05,16,56,14.30
2017,05,05,16,57,14.40
2017,05,05,16,58,14.40
2017,05,05,16,59,14.40
2017,05,05,17,00,14.30
2017,05,05,17,01,14.30
2017,05,05,17,02,14.20
2017,05,05,17,03,14.20
2017,05,05,17,04,14.10
2017,05,05,17,05,14.00
2017,05,05,17,06,13.90
2017,05,05,17,07,13.90
2017,05,05,17,08,13.80
2017,05,05,17,09,13.80
2017,05,05,17,10,13.70
2017,05,05,17,11,13.70
2017,05,05,17,12,13.70
2017,05,05,17,13,13.80
2017,05,05,17,14,13.80
2017,05,05,17,15,13.90
2017,05,05,17,16,13.90
2017,05,05,17,17,14.00
2017,05,05,17,18,14.00
2017,05,05,17,19,14.10